User: anonymous   Login
Location: B�rgermoos
(47.6500°N, 9.0667°E)
Time: 05:21:30
(UTC+00:00)
Language:

SR - Orbit

View from above orbital plane
View from above orbital plane
View from above satellite
View from above satellite

Ground track
Ground track

The orbit data is extracted from the following two-line orbital elements,

1    46U 60007B   21211.91116682  .00000103  00000-0  43220-4 0  9993
2    46  66.6909  22.7354 0211301 188.7390 171.0019 14.49420403198294
Epoch (UTC): 30 July 2021 21:52:04
Eccentricity: 0.0211301
inclination: 66.6909°
perigee height: 577 km
apogee height: 877 km
right ascension of ascending node: 22.7354°
argument of perigee: 188.7390°
revolutions per day: 14.49420403
mean anomaly at epoch: 171.0019°
orbit number at epoch: 19829

The dashed part of the orbit path shows where the satellite is in the earth's shadow,  

DLR